Kahului, HI

8:19 AM HST on June 23, 2017 (GMT -1000)
Kahului

Weather History for PHOG - January, 2011

Change the Weather History Date:

Tuesday, January 18, 2011

  Actual Average Record
Temperature  
Mean Temperature 71 °F 72 °F  
Max Temperature 80 °F 81 °F 90 °F (1952)
Min Temperature 62 °F 63 °F 54 °F (1969)
Degree Days  
Heating Degree Days 0 0  
Month to date heating degree days 0 0  
Since 1 July heating degree days 0 0  
Cooling Degree Days 6 7  
Month to date cooling degree days 113 126  
Year to date cooling degree days 113 126  
Growing Degree Days 20 (Base 50)    
Moisture  
Dew Point 62 °F    
Average Humidity 76    
Maximum Humidity 93    
Minimum Humidity 58    
Precipitation  
Precipitation 0.00 in 0.08 in 2.64 in (1959)
Month to date precipitation 4.21 1.72  
Year to date precipitation 4.21 1.72  
Snow  
Snow 0.00 in - - ()
Month to date snowfall 0.0  
Since 1 July snowfall 0.0  
Snow Depth 0.00 in    
Sea Level Pressure  
Sea Level Pressure 29.97 in    
Wind  
Wind Speed 5 mph (NE)    
Max Wind Speed 16 mph    
Max Gust Speed 20 mph    
Visibility 10 miles    
Events      
T = Trace of Precipitation, MM = Missing Value Source: NWS Daily Summary

Daily Weather History Graph

Daily Weather History Graph

Search for Another Location

Airport or City:

Trip Planner

Search our weather history database for the weather conditions in past years. The results will help you decide how hot, cold, wet, or windy it might be!

Date:

Astronomy

Jan. 18, 2011 Rise Set
Actual Time 7:05 AM HST 6:07 PM HST
Civil Twilight 6:41 AM HST 6:31 PM HST
Nautical Twilight 6:14 AM HST 6:58 PM HST
Astronomical Twilight 5:47 AM HST 7:24 PM HST
Moon 5:20 PM HST (1/18) 6:01 AM HST (1/18)
Length of Visible Light 11h 49m
Length of Day
11h 02m
Waxing Gibbous, 99% of the Moon is Illuminated
Jan 18
Waxing Gibbous
Jan 19
Full
Jan 26
Last Quarter
Feb 2
New
Feb 10
First Quarter

Hourly Weather History & Observations

Time (HST) Temp. Dew Point Humidity Pressure Visibility Wind Dir Wind Speed Gust Speed Precip Events Conditions
12:54 AM 63.0 °F 60.1 °F 90% 29.95 in 10.0 mi South 3.5 mph - N/A   Clear
1:54 AM 64.0 °F 60.1 °F 87% 29.94 in 10.0 mi Calm Calm - N/A   Clear
2:54 AM 63.0 °F 59.0 °F 87% 29.92 in 10.0 mi South 5.8 mph - N/A   Partly Cloudy
3:54 AM 62.1 °F 57.9 °F 86% 29.93 in 10.0 mi Calm Calm - N/A   Clear
4:54 AM 63.0 °F 59.0 °F 87% 29.93 in 10.0 mi Calm Calm - N/A   Clear
5:54 AM 64.0 °F 60.1 °F 87% 29.96 in 10.0 mi Calm Calm - N/A   Scattered Clouds
6:54 AM 64.0 °F 60.1 °F 87% 29.99 in 10.0 mi ESE 4.6 mph - N/A   Partly Cloudy
7:54 AM 66.0 °F 62.1 °F 87% 29.99 in 10.0 mi ESE 5.8 mph - N/A   Partly Cloudy
8:54 AM 71.1 °F 64.0 °F 78% 30.00 in 10.0 mi Calm Calm - N/A   Clear
9:54 AM 73.0 °F 62.1 °F 68% 30.01 in 10.0 mi Calm Calm - N/A   Clear
10:54 AM 78.1 °F 62.1 °F 58% 29.99 in 10.0 mi NNE 8.1 mph - N/A   Clear
11:54 AM 78.1 °F 62.1 °F 58% 29.98 in 10.0 mi NE 13.8 mph - N/A   Partly Cloudy
12:54 PM 79.0 °F 63.0 °F 58% 29.96 in 10.0 mi NNE 12.7 mph - N/A   Partly Cloudy
1:54 PM 79.0 °F 63.0 °F 58% 29.93 in 10.0 mi NNE 12.7 mph - N/A   Partly Cloudy
2:54 PM 77.0 °F 62.1 °F 60% 29.92 in 10.0 mi NE 11.5 mph - N/A   Partly Cloudy
3:54 PM 78.1 °F 63.0 °F 60% 29.93 in 10.0 mi NE 15.0 mph - N/A   Scattered Clouds
4:54 PM 75.9 °F 63.0 °F 64% 29.94 in 10.0 mi NNE 11.5 mph - N/A   Scattered Clouds
5:54 PM 73.0 °F 63.0 °F 71% 29.95 in 10.0 mi NE 8.1 mph - N/A   Scattered Clouds
6:54 PM 72.0 °F 63.0 °F 73% 29.97 in 10.0 mi NNE 8.1 mph - N/A   Clear
7:54 PM 71.1 °F 62.1 °F 73% 29.98 in 10.0 mi NE 9.2 mph - N/A   Clear
8:54 PM 68.0 °F 61.0 °F 78% 29.99 in 10.0 mi Calm Calm - N/A   Partly Cloudy
9:54 PM 72.0 °F 63.0 °F 73% 30.02 in 10.0 mi NNE 12.7 mph - N/A   Clear
10:54 PM 69.1 °F 60.1 °F 73% 30.02 in 10.0 mi ENE 3.5 mph - N/A   Clear
11:54 PM 71.1 °F 62.1 °F 73% 30.01 in 10.0 mi North 5.8 mph - N/A   Clear